[[{"header":{"parameterUnit":"m.s-1","parameterCategory":1,"la1":30.2991,"la2":30.254,"lo1":-89.0895,"lo2":-89.0444,"dy":0.0017,"dx":0.0017,"nx":28,"ny":28,"refTime":"2026-01-11T03:00:00:Z","depth":0,"parameterNumber":2,"parameterNumberName":"U-component_of_WINDS"},"data":[0,0,0,0,0,0,0,0,0,0,0,0,0,0,0,0,0,0,0,0,0,0,0,0,0,0,0,0,0,0,0,0,0,0,0,0,0,0,0,0,0,0,0,0,0,0,0,0,0,0,0,0,0,0,0,0,0,0,-3.2853,-3.2854,0,-3.2968,-3.297,-3.2971,-3.2877,-3.2873,-3.2869,-3.2866,-3.2987,-3.2994,-3.3001,0,0,0,0,0,0,0,0,0,0,0,0,0,-3.2553,-3.2559,-3.2853,-3.2854,-3.2856,-3.2968,-3.297,-3.2971,-3.2878,-3.2873,-3.2868,-3.2864,-3.2985,-3.2993,-3.3001,0,0,0,0,0,0,0,0,0,0,0,0,0,-3.2678,-3.2561,-3.2852,-3.2823,-3.2821,-3.2968,-3.297,-3.2972,-3.2879,-3.2873,-3.2867,-3.2862,-3.2982,-3.2992,-3.3003,-3.3186,0,0,-3.3034,-3.3039,0,0,0,0,0,0,0,0,-3.2671,-3.2689,-3.2826,-3.2825,-3.2823,-3.2902,-3.2909,-3.3044,-3.2881,-3.2857,-3.2866,-3.2859,-3.2964,-3.2976,-3.301,-3.3192,-3.3197,-3.3035,-3.3042,-3.3046,-3.3049,0,0,0,0,0,0,0,-3.2662,-3.2683,-3.2898,-3.2828,-3.2826,-3.2804,-3.2815,-3.2934,-3.2943,-3.2859,-3.2852,-3.2867,-3.2962,-3.3001,-3.3013,-3.3199,-3.3035,-3.3044,-3.3051,-3.3055,-3.3536,-3.3542,0,0,0,0,0,0,-3.2656,-3.2677,-3.2895,-3.2902,-3.2731,-3.2814,-3.2827,-3.2883,-3.2941,-3.2944,-3.2872,-3.2862,-3.2986,-3.3001,-3.3016,-3.3235,-3.3046,-3.3056,-3.3062,-3.3529,-3.3537,-3.3544,0,0,0,0,0,0,-3.265,-3.2677,-3.289,-3.2788,-3.2813,-3.2826,-3.289,-3.2889,-3.2927,-3.2951,-3.2952,-3.2909,-3.2982,-3.3002,-3.3144,-3.3238,-3.306,-3.307,-3.3522,-3.3532,-3.3541,-3.3675,0,0,0,0,0,0,-3.2642,-3.2675,-3.2745,-3.279,-3.2819,-3.3016,-3.2896,-3.2895,-3.2944,-3.2933,-3.2987,-3.299,-3.2979,-3.3129,-3.3155,-3.3249,-3.3078,-3.3513,-3.3526,-3.3538,-3.3662,-3.3688,-3.371,0,0,0,0,0,-3.2632,-3.2778,-3.2749,-3.2775,-3.2906,-3.3022,-3.3038,-3.3022,-3.2952,-3.3023,-3.3038,-3.2988,-3.3223,-3.3145,-3.3172,-3.3272,-3.3507,-3.3522,-3.3537,-3.3651,-3.3683,-3.3709,0,0,0,0,0,0,-3.2745,-3.2784,-3.2751,-3.2917,-3.2966,-3.3006,-3.3094,-3.3055,-3.3127,-3.3113,-3.309,-3.3103,-3.3253,-3.3276,-3.3188,-3.3452,-3.3354,-3.3375,-3.3432,-3.3462,-3.3486,-3.3478,-3.3087,0,0,0,0,0,-3.2789,-3.2879,-3.2908,-3.3051,-3.3078,-3.3082,-3.3131,-3.3114,-3.3165,-3.3186,-3.3212,-3.3264,-3.3349,-3.3407,-3.3487,-3.3664,-3.3675,-3.3746,-3.377,-3.3789,-3.3809,-3.3904,-3.3937,-3.3593,-3.3592,-3.3592,0,0,-3.2882,-3.2914,-3.2972,-3.3075,-3.3111,-3.3206,-3.31,-3.3205,-3.3275,-3.3202,-3.3338,-3.3359,-3.3415,-3.3576,-3.3648,-3.36,-3.3905,-3.3808,-3.3823,-3.3832,-3.3923,-3.3955,-3.3984,-3.3603,-3.3601,-3.3599,0,0,-3.3099,-3.3132,-3.3255,-3.3293,-3.3349,-3.335,-3.338,-3.3425,-3.3436,-3.3571,-3.3519,-3.3602,-3.3749,-3.3792,-3.3833,-3.4065,-3.4022,-3.4091,-3.4218,-3.4311,-3.4338,-3.4362,-3.4446,-3.4477,-3.411,-3.411,-3.411,0,-3.3207,-3.3347,-3.3323,-3.3432,-3.3479,-3.3415,-3.354,-3.3579,-3.3659,-3.3693,-3.3637,-3.3821,-3.3854,-3.4025,-3.4081,-3.4116,-3.415,-3.4086,-3.4336,-3.436,-3.4382,-3.4462,-3.4493,-3.4118,-3.4117,-3.4116,-3.4116,0,-3.3478,-3.3575,-3.3668,-3.3746,-3.3803,-3.3919,-3.3914,-3.3974,-3.3951,-3.3959,-3.4098,-3.4135,-3.4222,-3.426,-3.424,-3.4428,-3.4396,-3.4339,-3.4241,-3.4424,-3.4498,-3.4528,-3.413,-3.4127,-3.4125,-3.4122,0,0,-3.3772,-3.3834,-3.3869,-3.3903,-3.3959,-3.4035,-3.4148,-3.4231,-3.4284,-3.4341,-3.4436,-3.4561,-3.4508,-3.4555,-3.4538,-3.462,-3.4802,-3.4552,-3.4553,-3.4599,-3.5013,-3.5057,-3.5093,-3.4772,-3.4778,-3.4783,-3.5009,0,-3.3993,-3.4189,-3.4171,-3.4358,-3.4448,-3.4388,-3.4486,-3.4532,-3.4541,-3.462,-3.463,-3.472,-3.4642,-3.467,-3.4748,-3.4763,-3.4885,-3.4746,-3.4862,-3.4867,-3.4852,-3.5132,-3.5179,-3.5391,-3.5037,-3.5042,-3.5046,0,-3.4278,-3.4343,-3.4539,-3.4581,-3.4618,-3.4707,-3.4782,-3.4857,-3.4907,-3.4908,-3.4959,-3.4928,-3.5042,-3.4939,-3.5097,-3.5003,-3.5049,-3.5063,-3.5071,-3.5083,-3.4969,-3.5153,-3.5457,-3.549,-3.5091,-3.5088,-3.5084,0,-3.4475,-3.4612,-3.4746,-3.4777,-3.483,-3.4894,-3.4918,-3.4962,-3.5014,-3.5079,-3.5112,-3.519,-3.5234,-3.5295,-3.5286,-3.5211,-3.5447,-3.5343,-3.5452,-3.5453,-3.5506,-3.5504,-3.5825,-3.5533,-3.5532,-3.5532,-3.5531,0,-3.4725,-3.4847,-3.4836,-3.4919,-3.5054,-3.5031,-3.5166,-3.5183,-3.5223,-3.5308,-3.5261,-3.5343,-3.5324,-3.5406,-3.5399,-3.5531,-3.555,-3.5555,-3.5552,-3.5561,-3.5561,-3.5592,-3.5578,-3.554,-3.5538,-3.5537,-3.5535,0,-3.4969,-3.4966,-3.5109,-3.5146,-3.5158,-3.5256,-3.5288,-3.5367,-3.5371,-3.548,-3.5505,-3.5512,-3.5606,-3.5601,-3.5707,-3.5702,-3.5866,-3.5845,-3.5849,-3.5845,-3.5955,-3.5945,-3.6309,-3.6356,-3.6032,-3.6036,-3.6038,0,-3.513,-3.5222,-3.5268,-3.5322,-3.5351,-3.5438,-3.5489,-3.547,-3.5526,-3.5589,-3.5661,-3.5749,-3.5819,-3.5971,-3.5986,-3.6067,-3.6049,-3.617,-3.6061,-3.6066,-3.6052,-3.6048,-3.6057,-3.6193,-3.6197,-3.6199,-3.6202,0,-3.5416,-3.5409,-3.5485,-3.5561,-3.5623,-3.5682,-3.5736,-3.5782,-3.5768,-3.5834,-3.5928,-3.5982,-3.6089,-3.6178,-3.6255,-3.628,-3.624,-3.6236,-3.6265,-3.6276,-3.6275,-3.6279,-3.591,-3.6228,-3.6226,-3.6224,-3.6222,-3.6221,-3.5624,-3.5704,-3.5749,-3.5835,-3.5872,-3.5923,-3.5999,-3.6012,-3.609,-3.6175,-3.6159,-3.6265,-3.6312,-3.6411,-3.6444,-3.6526,-3.6483,-3.6526,-3.6537,-3.6549,-3.6562,-3.626,-3.654,-3.6539,-3.6539,-3.6538,-3.6537,0,-3.5909,-3.5934,-3.6013,-3.6089,-3.6157,-3.6111,-3.6167,-3.6227,-3.6321,-3.6368,-3.6437,-3.6545,-3.6631,-3.6652,-3.6734,-3.6797,-3.678,-3.6819,-3.6815,-3.6822,-3.6595,-3.6562,-3.6831,-3.6831,-3.6831,-3.6831,-3.6831,-3.6831,-3.6065,-3.6198,-3.6196,-3.6347,-3.6371,-3.6474,-3.6511,-3.6557,-3.6595,-3.6717,-3.6788,-3.68,-3.6837,-3.6921,-3.6998,-3.7002,-3.7035,-3.7082,-3.7079,-3.6867,-3.6838,-3.681,-3.6779,-3.7089,-3.709,-3.7299,-3.7301,-3.7303]},{"header":{"parameterUnit":"m.s-1","parameterCategory":1,"la1":30.2991,"la2":30.254,"lo1":-89.0895,"lo2":-89.0444,"dy":0.0017,"dx":0.0017,"nx":28,"ny":28,"refTime":"2026-01-11T03:00:00:Z","depth":0,"parameterNumber":3,"parameterNumberName":"V-component_of_WINDS"},"data":[0,0,0,0,0,0,0,0,0,0,0,0,0,0,0,0,0,0,0,0,0,0,0,0,0,0,0,0,0,0,0,0,0,0,0,0,0,0,0,0,0,0,0,0,0,0,0,0,0,0,0,0,0,0,0,0,0,0,-6.1633,-6.1634,0,-6.1744,-6.1745,-6.1747,-6.1672,-6.1669,-6.1666,-6.1662,-6.1772,-6.1778,-6.1784,0,0,0,0,0,0,0,0,0,0,0,0,0,-6.135,-6.1355,-6.1633,-6.1634,-6.1636,-6.1744,-6.1746,-6.1747,-6.1673,-6.1669,-6.1665,-6.1661,-6.177,-6.1777,-6.1784,0,0,0,0,0,0,0,0,0,0,0,0,0,-6.1468,-6.1357,-6.1633,-6.1612,-6.1611,-6.1744,-6.1746,-6.1747,-6.1674,-6.1669,-6.1664,-6.1659,-6.1768,-6.1776,-6.1785,-6.1943,0,0,-6.1813,-6.1817,0,0,0,0,0,0,0,0,-6.1461,-6.1479,-6.1613,-6.1614,-6.1613,-6.1689,-6.1686,-6.1813,-6.1675,-6.165,-6.1662,-6.1657,-6.1748,-6.1759,-6.1791,-6.1948,-6.1953,-6.1814,-6.182,-6.1824,-6.1826,0,0,0,0,0,0,0,-6.1453,-6.1473,-6.1677,-6.1615,-6.1615,-6.1595,-6.1606,-6.171,-6.1726,-6.1652,-6.1647,-6.1661,-6.1747,-6.1782,-6.1793,-6.1955,-6.1814,-6.1822,-6.1828,-6.1831,-6.2245,-6.225,0,0,0,0,0,0,-6.1448,-6.1467,-6.1673,-6.168,-6.1523,-6.1604,-6.1617,-6.167,-6.1725,-6.1728,-6.1665,-6.1657,-6.1769,-6.1782,-6.1796,-6.1983,-6.1823,-6.1832,-6.1837,-6.2239,-6.2246,-6.2252,0,0,0,0,0,0,-6.1442,-6.1467,-6.1669,-6.1572,-6.1596,-6.1615,-6.1675,-6.1675,-6.171,-6.1735,-6.1737,-6.1698,-6.1765,-6.1783,-6.1907,-6.1986,-6.1836,-6.1844,-6.2233,-6.2241,-6.2249,-6.2359,0,0,0,0,0,0,-6.1434,-6.1465,-6.1527,-6.1574,-6.1602,-6.178,-6.168,-6.1681,-6.1726,-6.1716,-6.1767,-6.177,-6.1763,-6.1894,-6.1916,-6.1996,-6.1851,-6.2226,-6.2236,-6.2246,-6.2348,-6.237,-6.2388,0,0,0,0,0,-6.1424,-6.1553,-6.1531,-6.1556,-6.168,-6.1785,-6.18,-6.1791,-6.1733,-6.1794,-6.181,-6.1768,-6.1974,-6.1907,-6.1931,-6.2015,-6.2221,-6.2233,-6.2245,-6.2339,-6.2366,-6.2388,0,0,0,0,0,0,-6.1513,-6.1559,-6.1534,-6.1683,-6.1731,-6.1772,-6.1849,-6.1819,-6.1883,-6.1872,-6.1855,-6.1867,-6.1996,-6.2018,-6.1943,-6.2169,-6.2088,-6.2106,-6.2151,-6.2176,-6.2196,-6.2187,-6.1859,0,0,0,0,0,-6.1551,-6.1634,-6.1668,-6.1795,-6.1821,-6.1831,-6.1876,-6.1865,-6.1913,-6.1932,-6.1957,-6.2004,-6.2079,-6.2129,-6.2199,-6.2351,-6.2359,-6.242,-6.244,-6.2456,-6.2472,-6.2551,-6.2578,-6.2293,-6.2292,-6.2292,0,0,-6.1628,-6.1663,-6.1716,-6.1814,-6.185,-6.1934,-6.1848,-6.1942,-6.2003,-6.1946,-6.2064,-6.2084,-6.2135,-6.2273,-6.2335,-6.2295,-6.2552,-6.2472,-6.2485,-6.2492,-6.2567,-6.2594,-6.2618,-6.2301,-6.2299,-6.2298,0,0,-6.1811,-6.1847,-6.1956,-6.1994,-6.2049,-6.2055,-6.2081,-6.2127,-6.2138,-6.2257,-6.2215,-6.2287,-6.2417,-6.2454,-6.249,-6.2686,-6.265,-6.2709,-6.2814,-6.2892,-6.2914,-6.2934,-6.3002,-6.3027,-6.2725,-6.2725,-6.2725,0,-6.19,-6.2027,-6.2016,-6.2112,-6.2155,-6.2108,-6.2217,-6.2253,-6.2329,-6.2359,-6.2313,-6.2473,-6.2505,-6.265,-6.2697,-6.2729,-6.2756,-6.2703,-6.2912,-6.2932,-6.295,-6.3015,-6.3041,-6.2732,-6.2731,-6.273,-6.273,0,-6.2132,-6.2221,-6.2302,-6.2377,-6.2429,-6.2531,-6.2533,-6.2587,-6.2571,-6.258,-6.27,-6.2736,-6.2812,-6.2845,-6.283,-6.2988,-6.2961,-6.2915,-6.2832,-6.2985,-6.3045,-6.307,-6.2742,-6.2739,-6.2737,-6.2735,0,0,-6.2375,-6.2442,-6.2472,-6.2504,-6.2561,-6.2628,-6.2727,-6.2803,-6.2848,-6.2901,-6.2982,-6.3092,-6.3049,-6.309,-6.3078,-6.3146,-6.3297,-6.3091,-6.3091,-6.3126,-6.3471,-6.3505,-6.3534,-6.3273,-6.3278,-6.3282,-6.3466,0,-6.2561,-6.2736,-6.2727,-6.289,-6.297,-6.2925,-6.3011,-6.3054,-6.3065,-6.3133,-6.3145,-6.3223,-6.316,-6.3184,-6.325,-6.3265,-6.3365,-6.3251,-6.3346,-6.335,-6.3334,-6.3566,-6.3603,-6.3775,-6.349,-6.3494,-6.3497,0,-6.2801,-6.2863,-6.3034,-6.3077,-6.311,-6.3188,-6.3255,-6.3322,-6.3368,-6.3371,-6.3417,-6.3393,-6.3491,-6.3406,-6.3539,-6.3462,-6.3499,-6.3512,-6.3519,-6.3526,-6.3432,-6.3579,-6.383,-6.3855,-6.3534,-6.3531,-6.3528,0,-6.296,-6.3086,-6.3204,-6.3233,-6.3287,-6.3342,-6.3366,-6.3408,-6.3453,-6.3511,-6.354,-6.3609,-6.3646,-6.3698,-6.3692,-6.3632,-6.3827,-6.3742,-6.383,-6.3831,-6.3873,-6.387,-6.4133,-6.39,-6.3899,-6.3899,-6.3898,0,-6.3168,-6.3273,-6.3275,-6.3348,-6.3464,-6.3453,-6.3567,-6.3586,-6.3623,-6.3696,-6.3661,-6.3731,-6.372,-6.3789,-6.3785,-6.3894,-6.3911,-6.3915,-6.3912,-6.3918,-6.3917,-6.3942,-6.3929,-6.3905,-6.3904,-6.3903,-6.3901,0,-6.3364,-6.337,-6.3496,-6.3536,-6.3549,-6.3633,-6.3666,-6.3733,-6.3741,-6.3834,-6.3855,-6.3867,-6.3946,-6.3946,-6.4036,-6.4033,-6.4167,-6.4151,-6.4152,-6.4148,-6.4235,-6.4227,-6.4522,-6.4559,-6.4303,-6.4306,-6.4308,0,-6.3496,-6.3577,-6.3626,-6.3673,-6.3701,-6.3778,-6.3824,-6.3815,-6.3864,-6.3922,-6.3982,-6.4058,-6.4118,-6.4246,-6.4261,-6.4329,-6.4314,-6.4413,-6.4324,-6.4326,-6.4313,-6.4308,-6.4315,-6.443,-6.4433,-6.4435,-6.4437,0,-6.3729,-6.3727,-6.3796,-6.3866,-6.3922,-6.3975,-6.4025,-6.4065,-6.4061,-6.4117,-6.4198,-6.4245,-6.4336,-6.4411,-6.4477,-6.4499,-6.4467,-6.4465,-6.4488,-6.4494,-6.4491,-6.4492,-6.4198,-6.4458,-6.4456,-6.4454,-6.4453,-6.4452,-6.3896,-6.3965,-6.401,-6.4087,-6.4123,-6.417,-6.4235,-6.4251,-6.4319,-6.4393,-6.4383,-6.4473,-6.4515,-6.4599,-6.4628,-6.4696,-6.4661,-6.4696,-6.4705,-6.4713,-6.4722,-6.4481,-6.4708,-6.4708,-6.4707,-6.4706,-6.4706,0,-6.4126,-6.4152,-6.4223,-6.4294,-6.4354,-6.432,-6.4372,-6.4424,-6.4504,-6.4546,-6.4606,-6.4698,-6.477,-6.4791,-6.486,-6.491,-6.4897,-6.4929,-6.4924,-6.493,-6.475,-6.4722,-6.4938,-6.4938,-6.4938,-6.4938,-6.4938,-6.4938,-6.4252,-6.4366,-6.437,-6.45,-6.4525,-6.4614,-6.4647,-6.4689,-6.4722,-6.4827,-6.4887,-6.4901,-6.4934,-6.5005,-6.5069,-6.5073,-6.5099,-6.5136,-6.5134,-6.4966,-6.4943,-6.492,-6.4894,-6.5143,-6.5143,-6.5308,-6.5309,-6.5311]}]]